Benson, United Kingdom

8:19 AM BST on June 23, 2017 (GMT +0100)
Benson Air Base

Weather History for EGUB - November, 2013

Change the Weather History Date:

Thursday, November 7, 2013

  Actual Average Record
Temperature  
Mean Temperature 46 °F -  
Max Temperature 51 °F 47 °F 62 °F (2015)
Min Temperature 41 °F 37 °F 30 °F (2016)
Degree Days  
Heating Degree Days 18    
Moisture  
Dew Point 44 °F    
Average Humidity 86    
Maximum Humidity 100    
Minimum Humidity 68    
Precipitation  
Precipitation 0.00 in - - ()
Sea Level Pressure  
Sea Level Pressure 29.71 in    
Wind  
Wind Speed 6 mph ()    
Max Wind Speed 13 mph    
Max Gust Speed -    
Visibility 9.8 miles    
Events Rain    
Averages and records for this station are not official NWS values.
T = Trace of Precipitation, MM = Missing Value Source: Averaged Metar Reports

Daily Weather History Graph

Daily Weather History Graph

Search for Another Location

Airport or City:

Trip Planner

Search our weather history database for the weather conditions in past years. The results will help you decide how hot, cold, wet, or windy it might be!

Date:

Astronomy

Nov. 07, 2013 Rise Set
Actual Time 7:08 AM GMT 4:26 PM GMT
Civil Twilight 6:32 AM GMT 5:02 PM GMT
Nautical Twilight 5:52 AM GMT 5:42 PM GMT
Astronomical Twilight 5:13 AM GMT 6:21 PM GMT
Moon 11:12 AM GMT (11/7) 8:14 PM GMT (11/7)
Length of Visible Light 10h 29m
Length of Day
9h 17m
Waxing Crescent, 20% of the Moon is Illuminated
Nov 7
Waxing Crescent
Nov 10
First Quarter
Nov 17
Full
Nov 25
Last Quarter
Dec 3
New

Hourly Weather History & Observations

Time (GMT) Temp. Windchill Dew Point Humidity Pressure Visibility Wind Dir Wind Speed Gust Speed Precip Events Conditions
12:00 AM 58 °F - 55 °F 86% 29.53 in 12 mi SW 12.7 mph - - Rain Light Rain
12:50 AM 51.8 °F - 50.0 °F 94% 29.56 in 6.2 mi West 5.8 mph - N/A   Mostly Cloudy
1:50 AM 51.8 °F - 50.0 °F 94% 29.59 in 6.2 mi West 3.5 mph - N/A   Scattered Clouds
2:50 AM 51.8 °F - 48.2 °F 88% 29.62 in 6.2 mi West 9.2 mph - N/A   Mostly Cloudy
3:50 AM 50.0 °F - 46.4 °F 87% 29.62 in 6.2 mi West 5.8 mph - N/A   Mostly Cloudy
4:50 AM 48.2 °F - 46.4 °F 93% 29.65 in 6.2 mi West 3.5 mph - N/A   Mostly Cloudy
5:50 AM 48.2 °F - 44.6 °F 87% 29.65 in - WSW 5.8 mph - N/A   Clear
6:00 AM 48 °F - 44 °F 83% 29.68 in 22 mi WSW 5.8 mph - -   Mostly Cloudy
6:50 AM 44.6 °F 43.1 °F 44.6 °F 100% 29.68 in 6.2 mi SW 3.5 mph - N/A   Mostly Cloudy
7:50 AM 44.6 °F - 42.8 °F 93% 29.71 in - SW 2.3 mph - N/A   Clear
8:50 AM 48.2 °F - 44.6 °F 87% 29.74 in - SW 3.5 mph - N/A   Clear
9:00 AM 47 °F - 44 °F 85% 29.75 in 22 mi SW 3.5 mph - -   Mostly Cloudy
9:50 AM 48.2 °F - 44.6 °F 87% 29.74 in - SSW 4.6 mph - N/A   Clear
10:50 AM 48.2 °F - 44.6 °F 87% 29.77 in - SW 6.9 mph - N/A   Clear
11:50 AM 50.0 °F - 44.6 °F 82% 29.77 in - SSW 6.9 mph - N/A   Clear
12:00 PM 50 °F - 44 °F 73% 29.77 in 19 mi SSW 6.9 mph - -   Mostly Cloudy
12:50 PM 50.0 °F - 42.8 °F 76% 29.74 in - SSW 8.1 mph - N/A   Clear
1:50 PM 50.0 °F - 42.8 °F 76% 29.74 in - South 8.1 mph - N/A   Clear
2:50 PM 50.0 °F - 42.8 °F 76% 29.74 in 6.2 mi South 5.8 mph - N/A   Mostly Cloudy
3:00 PM 51 °F - 44 °F 68% 29.76 in 19 mi South 5.8 mph - -   Scattered Clouds
3:50 PM 50.0 °F - 44.6 °F 82% 29.74 in 6.2 mi South 6.9 mph - N/A   Mostly Cloudy
4:50 PM 44.6 °F 40.7 °F 42.8 °F 93% 29.74 in - South 6.9 mph - N/A   Clear
5:50 PM 44.6 °F 40.7 °F 41.0 °F 87% 29.74 in - South 6.9 mph - N/A   Clear
6:00 PM 44 °F - 42 °F 89% 29.76 in 19 mi South 6.9 mph - -   Scattered Clouds
6:50 PM 46.4 °F 42.9 °F 42.8 °F 87% 29.74 in 6.2 mi South 6.9 mph - N/A   Mostly Cloudy
7:50 PM 44.6 °F 40.7 °F 41.0 °F 87% 29.77 in - SSW 6.9 mph - N/A   Clear
8:50 PM 44.6 °F 41.4 °F 41.0 °F 87% 29.77 in 6.2 mi SSW 5.8 mph - N/A   Mostly Cloudy
9:00 PM 45 °F - 42 °F 83% 29.78 in 19 mi SSW 5.8 mph - -   Scattered Clouds
9:50 PM 42.8 °F 38.0 °F 41.0 °F 93% 29.77 in - South 8.1 mph - N/A   Clear
10:50 PM 42.8 °F 38.6 °F 41.0 °F 93% 29.77 in - South 6.9 mph - N/A   Clear
11:50 PM 41.0 °F 37.1 °F 39.2 °F 93% 29.77 in 6.2 mi South 5.8 mph - N/A   Scattered Clouds